Hourly Data Report for September 09, 2017

TORONTO CITY
ONTARIO

43°40'00.000" N
79°24'00.000" W
112.50 m
6158355
71508
XTO

Download Data

Hourly Data (September 2017)
Hourly Data Report for September 9, 2017
TIME
LST
Temp Definition
°C
Dew Point Definition
°C
Rel Hum Definition
%
Precip. Amount Definition
mm

Wind Dir Definition
10's deg

Wind Spd Definition
km/h
Visibility Definition
km
Stn Press Definition
kPa
Hmdx Definition


Wind Chill Definition


Weather Definition


00:00 12.2 6.7 69 0.0 LegendMM LegendMM   101.32     LegendNANA
01:00 11.7 6.2 69 0.0 LegendMM LegendMM   101.35     LegendNANA
02:00 11.1 5.0 66 0.0 LegendMM LegendMM   101.39     LegendNANA
03:00 10.9 5.3 68 0.0 LegendMM LegendMM   101.42     LegendNANA
04:00 10.2 5.3 72 0.0 LegendMM LegendMM   101.46     LegendNANA
05:00 9.6 5.4 75 0.0 LegendMM LegendMM   101.52     LegendNANA
06:00 8.9 5.6 80 0.0 LegendMM LegendMM   101.60     LegendNANA
07:00 9.7 6.2 79 0.0 LegendMM LegendMM   101.65     LegendNANA
08:00 12.2 5.5 64 0.0 LegendMM LegendMM   101.67     LegendNANA
09:00 13.6 5.2 57 0.0 LegendMM LegendMM   101.72     LegendNANA
10:00 14.2 4.0 51 0.0 LegendMM LegendMM   101.74     LegendNANA
11:00 16.1 5.9 51 0.0 LegendMM LegendMM   101.73     LegendNANA
12:00 16.8 3.9 42 0.0 LegendMM LegendMM   101.71     LegendNANA
13:00 17.6 4.1 41 0.0 LegendMM LegendMM   101.69     LegendNANA
14:00 17.2 4.5 43 0.0 LegendMM LegendMM   101.63     LegendNANA
15:00 17.0 5.7 48 0.0 LegendMM LegendMM   101.58     LegendNANA
16:00 16.9 7.2 53 0.0 LegendMM LegendMM   101.56     LegendNANA
17:00 16.3 7.4 56 0.0 LegendMM LegendMM   101.56     LegendNANA
18:00 15.7 7.5 58 0.0 LegendMM LegendMM   101.56     LegendNANA
19:00 15.5 6.5 55 0.0 LegendMM LegendMM   101.60     LegendNANA
20:00 14.3 5.5 55 0.0 LegendMM LegendMM   101.66     LegendNANA
21:00 13.1 5.6 60 0.0 LegendMM LegendMM   101.68     LegendNANA
22:00 12.8 5.8 62 0.0 LegendMM LegendMM   101.70     LegendNANA
23:00 12.1 5.6 64 0.0 LegendMM LegendMM   101.68     LegendNANA

Notes on Data Quality.

Legend

  • E = Estimated
  • M = Missing
  • NA = Not Available*
  • [empty] = Indicates an unobserved value
Date modified: